Tracking 28794 objects as of 19-Apr-2024
HD Live streaming from Space Station
objects crossing your sky now

THORAD AGENA D DEB

Track THORAD AGENA D DEB now!
10-day predictions


NORAD ID: 42552
Int'l Code: 1970-025TJ
Perigee: 979.5 km
Apogee: 1,250.7 km
Inclination: 99.4 °
Period: 107.4 minutes
Semi major axis: 7486 km
RCS: Unknown
Launch date: April 8, 1970
Source: United States (US)
Launch site: AIR FORCE WESTERN TEST RANGE (AFWTR)

Note: This is SATELLITE DEBRIS
Your satellite tracking list
Your tracking list is empty




NASA's NSSDC Master Catalog

Two Line Element Set (TLE):
1 42552U 70025TJ  24102.69650324  .00001596  00000-0  27127-2 0  9998
2 42552  99.3610  84.1428 0181162  82.9839 279.1856 13.40361389506921
Source of the keplerian elements: AFSPC